NOZ105 ENEV-ENBR

Flight info

Callsign NOZ105
Flight time 1h 31m
Altitude 36000
Route GEPTU DCT LUNUR
Aircraft B738/M-SDE2E3FGHIRWXY/LB1

Departure

Time 2026-04-21 07:40
Airport Harstad/Narvik Airport (ENEV)

Arrival

Time 2026-04-21 09:11
Airport Bergen Airport, Flesland (ENBR)
Time Latitude Longitude Altitude Speed Heading
2026-04-21 07:13 68.48980 16.68715 90 ft 0 kts 358°
2026-04-21 07:30 68.48979 16.68715 90 ft 1 kts 358°
2026-04-21 07:30 68.48956 16.68717 90 ft 4 kts 358°
2026-04-21 07:31 68.48930 16.68720 90 ft 4 kts 358°
2026-04-21 07:31 68.48904 16.68722 94 ft 3 kts 358°
2026-04-21 07:31 68.48901 16.68723 91 ft 1 kts 358°
2026-04-21 07:34 68.48905 16.68715 91 ft 3 kts 327°
2026-04-21 07:35 68.48901 16.68644 91 ft 4 kts 253°
2026-04-21 07:35 68.48894 16.68556 93 ft 7 kts 263°
2026-04-21 07:35 68.48891 16.68313 88 ft 17 kts 276°
2026-04-21 07:35 68.48988 16.68199 86 ft 17 kts 356°
2026-04-21 07:36 68.49102 16.68187 87 ft 16 kts 358°
2026-04-21 07:36 68.49211 16.68172 89 ft 15 kts 356°
2026-04-21 07:36 68.49320 16.68159 83 ft 16 kts 357°
2026-04-21 07:36 68.49429 16.68146 81 ft 16 kts 358°
2026-04-21 07:37 68.49550 16.68133 69 ft 19 kts 357°
2026-04-21 07:37 68.49683 16.68120 68 ft 19 kts 358°
2026-04-21 07:37 68.49812 16.68106 72 ft 18 kts 356°
2026-04-21 07:37 68.49938 16.68088 72 ft 18 kts 359°
2026-04-21 07:38 68.50060 16.68077 70 ft 17 kts 357°
2026-04-21 07:38 68.50177 16.68064 77 ft 17 kts 357°
2026-04-21 07:38 68.50293 16.68050 83 ft 17 kts 356°
2026-04-21 07:38 68.50378 16.67898 88 ft 16 kts 281°
2026-04-21 07:39 68.50343 16.67670 91 ft 15 kts 174°
2026-04-21 07:39 68.50188 16.67700 87 ft 48 kts 177°
2026-04-21 07:39 68.49616 16.67762 92 ft 115 kts 178°
2026-04-21 07:39 68.48634 16.67877 224 ft 157 kts 177°
2026-04-21 07:40 68.47551 16.68195 986 ft 155 kts 180°
2026-04-21 07:40 68.46441 16.68209 1557 ft 173 kts 181°
2026-04-21 07:40 68.45154 16.68295 1975 ft 192 kts 181°
2026-04-21 07:40 68.43786 16.68162 2322 ft 205 kts 197°
2026-04-21 07:41 68.42610 16.65872 2564 ft 219 kts 236°
2026-04-21 07:41 68.42202 16.61753 2816 ft 241 kts 275°
2026-04-21 07:41 68.42767 16.57464 3480 ft 247 kts 290°
2026-04-21 07:41 68.42995 16.52909 4249 ft 247 kts 257°
2026-04-21 07:42 68.42306 16.48654 5035 ft 249 kts 245°
2026-04-21 07:42 68.41627 16.44280 5770 ft 252 kts 251°
2026-04-21 07:42 68.41042 16.39777 6529 ft 254 kts 251°
2026-04-21 07:42 68.40408 16.35259 7257 ft 258 kts 245°
2026-04-21 07:43 68.39306 16.31383 8025 ft 264 kts 226°
2026-04-21 07:43 68.37904 16.28103 8708 ft 269 kts 225°
2026-04-21 07:43 68.36464 16.24793 9394 ft 272 kts 226°
2026-04-21 07:43 68.35041 16.21468 10088 ft 276 kts 226°
2026-04-21 07:44 68.33575 16.17995 10613 ft 286 kts 227°
2026-04-21 07:44 68.32023 16.14287 10764 ft 309 kts 227°
2026-04-21 07:44 68.30353 16.10324 10960 ft 330 kts 225°
2026-04-21 07:44 68.28511 16.06417 11434 ft 341 kts 222°
2026-04-21 07:45 68.26593 16.02546 12021 ft 347 kts 222°
2026-04-21 07:45 68.24642 15.98625 12618 ft 353 kts 223°
2026-04-21 07:45 68.22687 15.94686 13249 ft 357 kts 222°
2026-04-21 07:45 68.20693 15.90654 13963 ft 360 kts 222°
2026-04-21 07:46 68.18688 15.86593 14637 ft 363 kts 222°
2026-04-21 07:46 68.16656 15.82476 15294 ft 367 kts 222°
2026-04-21 07:46 68.14608 15.78334 15967 ft 371 kts 221°
2026-04-21 07:46 68.12529 15.74141 16629 ft 375 kts 221°
2026-04-21 07:47 68.10358 15.70182 17248 ft 383 kts 211°
2026-04-21 07:47 68.07921 15.67200 17878 ft 388 kts 206°
2026-04-21 07:47 68.05438 15.64488 18486 ft 392 kts 205°
2026-04-21 07:47 68.02903 15.61758 19106 ft 394 kts 205°
2026-04-21 07:48 68.00349 15.58968 19696 ft 397 kts 205°
2026-04-21 07:48 67.97790 15.56124 20286 ft 400 kts 205°
2026-04-21 07:48 67.95221 15.53235 20843 ft 403 kts 205°
2026-04-21 07:48 67.92632 15.50306 21407 ft 405 kts 205°
2026-04-21 07:49 67.90027 15.47359 21954 ft 408 kts 205°
2026-04-21 07:49 67.87410 15.44400 22472 ft 411 kts 205°
2026-04-21 07:49 67.84804 15.41460 22953 ft 414 kts 205°
2026-04-21 07:49 67.82142 15.38469 23428 ft 417 kts 205°
2026-04-21 07:50 67.79470 15.35449 23926 ft 418 kts 207°
2026-04-21 07:50 67.76942 15.31678 24389 ft 418 kts 215°
2026-04-21 07:50 67.74521 15.27377 24836 ft 421 kts 217°
2026-04-21 07:50 67.72119 15.22918 25232 ft 424 kts 217°
2026-04-21 07:51 67.69705 15.18412 25660 ft 426 kts 217°
2026-04-21 07:51 67.67274 15.13918 26086 ft 428 kts 217°
2026-04-21 07:51 67.64851 15.09500 26484 ft 431 kts 217°
2026-04-21 07:51 67.62374 15.05039 26875 ft 433 kts 216°
2026-04-21 07:52 67.59873 15.00580 27227 ft 436 kts 216°
2026-04-21 07:52 67.57362 14.96134 27601 ft 438 kts 216°
2026-04-21 07:52 67.54828 14.91673 27974 ft 440 kts 216°
2026-04-21 07:52 67.52280 14.87205 28345 ft 442 kts 215°
2026-04-21 07:53 67.49719 14.82729 28686 ft 444 kts 215°
2026-04-21 07:53 67.47146 14.78243 29018 ft 446 kts 215°
2026-04-21 07:53 67.44559 14.73741 29358 ft 448 kts 215°
2026-04-21 07:53 67.42001 14.69302 29703 ft 449 kts 215°
2026-04-21 07:54 67.39401 14.64798 30008 ft 451 kts 215°
2026-04-21 07:54 67.36777 14.60267 30291 ft 453 kts 214°
2026-04-21 07:54 67.34151 14.55743 30564 ft 455 kts 214°
2026-04-21 07:54 67.31508 14.51201 30835 ft 457 kts 214°
2026-04-21 07:55 67.28853 14.46650 31092 ft 459 kts 215°
2026-04-21 07:55 67.26187 14.42096 31363 ft 460 kts 215°
2026-04-21 07:55 67.23519 14.37550 31689 ft 459 kts 214°
2026-04-21 07:55 67.20895 14.33090 32035 ft 457 kts 214°
2026-04-21 07:56 67.18243 14.28595 32375 ft 456 kts 214°
2026-04-21 07:56 67.15592 14.24115 32687 ft 456 kts 214°
2026-04-21 07:56 67.12939 14.19644 32981 ft 455 kts 214°
2026-04-21 07:56 67.10293 14.15195 33297 ft 455 kts 214°
2026-04-21 07:57 67.07648 14.10758 33602 ft 454 kts 214°
2026-04-21 07:57 67.05009 14.06343 33874 ft 453 kts 214°
2026-04-21 07:57 67.02365 14.01934 34162 ft 453 kts 214°
2026-04-21 07:57 66.99762 13.97604 34434 ft 452 kts 214°
2026-04-21 07:58 66.97151 13.93271 34673 ft 453 kts 214°
2026-04-21 07:58 66.94505 13.88891 34855 ft 454 kts 214°
2026-04-21 07:58 66.91849 13.84506 35063 ft 455 kts 214°
2026-04-21 07:58 66.89196 13.80136 35315 ft 454 kts 214°
2026-04-21 07:59 66.86541 13.75776 35547 ft 454 kts 214°
2026-04-21 07:59 66.83884 13.71422 35713 ft 456 kts 214°
2026-04-21 07:59 66.81210 13.67052 35892 ft 457 kts 214°
2026-04-21 07:59 66.78573 13.62756 36137 ft 456 kts 214°
2026-04-21 08:00 66.75898 13.58411 36336 ft 457 kts 214°
2026-04-21 08:00 66.73218 13.54066 36460 ft 459 kts 214°
2026-04-21 08:00 66.67791 13.45304 36482 ft 464 kts 214°
2026-04-21 08:01 66.62362 13.36591 36468 ft 459 kts 213°
2026-04-21 08:02 66.54366 13.23834 36469 ft 455 kts 213°
2026-04-21 08:02 66.49017 13.15349 36481 ft 455 kts 213°
2026-04-21 08:03 66.43658 13.06895 36489 ft 455 kts 213°
2026-04-21 08:03 66.38285 12.98467 36500 ft 457 kts 213°
2026-04-21 08:04 66.32890 12.90047 36491 ft 458 kts 213°
2026-04-21 08:04 66.27513 12.81697 36509 ft 459 kts 213°
2026-04-21 08:05 66.22095 12.73328 36512 ft 459 kts 213°
2026-04-21 08:05 66.16674 12.64994 36511 ft 458 kts 213°
2026-04-21 08:06 66.11269 12.56727 36502 ft 456 kts 212°
2026-04-21 08:06 66.05929 12.48602 36494 ft 453 kts 212°
2026-04-21 08:07 66.00581 12.40502 36498 ft 450 kts 212°
2026-04-21 08:07 65.95239 12.32456 36501 ft 451 kts 212°
2026-04-21 08:08 65.89830 12.24346 36516 ft 460 kts 212°
2026-04-21 08:08 65.84399 12.16243 36507 ft 460 kts 212°
2026-04-21 08:09 65.78968 12.08184 36490 ft 452 kts 212°
2026-04-21 08:09 65.73625 12.00296 36509 ft 449 kts 212°
2026-04-21 08:10 65.68271 11.92428 36525 ft 450 kts 212°
2026-04-21 08:10 65.62903 11.84576 36520 ft 451 kts 212°
2026-04-21 08:11 65.57556 11.76796 36513 ft 452 kts 212°
2026-04-21 08:11 65.52172 11.68996 36512 ft 451 kts 211°
2026-04-21 08:12 65.46783 11.61232 36516 ft 451 kts 211°
2026-04-21 08:12 65.41394 11.53506 36513 ft 451 kts 211°
2026-04-21 08:13 65.36005 11.45814 36514 ft 451 kts 211°
2026-04-21 08:13 65.30656 11.38216 36517 ft 450 kts 211°
2026-04-21 08:14 65.25275 11.30608 36524 ft 449 kts 211°
2026-04-21 08:14 65.19894 11.23040 36523 ft 449 kts 211°
2026-04-21 08:15 65.14511 11.15502 36530 ft 448 kts 211°
2026-04-21 08:15 65.09172 11.08062 36530 ft 448 kts 211°
2026-04-21 08:16 65.03806 11.00617 36528 ft 447 kts 211°
2026-04-21 08:16 64.98435 10.93203 36529 ft 446 kts 211°
2026-04-21 08:17 64.93068 10.85836 36533 ft 446 kts 210°
2026-04-21 08:17 64.87700 10.78492 36528 ft 446 kts 210°
2026-04-21 08:18 64.82357 10.71218 36536 ft 447 kts 210°
2026-04-21 08:18 64.76981 10.63931 36531 ft 446 kts 210°
2026-04-21 08:19 64.71594 10.56665 36538 ft 447 kts 210°
2026-04-21 08:19 64.66204 10.49429 36538 ft 447 kts 210°
2026-04-21 08:20 64.60842 10.42265 36541 ft 447 kts 210°
2026-04-21 08:20 64.55443 10.35085 36543 ft 447 kts 210°
2026-04-21 08:21 64.50036 10.27924 36540 ft 447 kts 210°
2026-04-21 08:21 64.44627 10.20797 36542 ft 447 kts 209°
2026-04-21 08:22 64.39254 10.13747 36549 ft 447 kts 209°
2026-04-21 08:22 64.33840 10.06676 36555 ft 447 kts 209°
2026-04-21 08:23 64.28420 9.99631 36546 ft 447 kts 209°
2026-04-21 08:23 64.23004 9.92623 36564 ft 446 kts 209°
2026-04-21 08:24 64.17627 9.85695 36565 ft 446 kts 209°
2026-04-21 08:24 64.12212 9.78750 36558 ft 446 kts 209°
2026-04-21 08:25 64.06796 9.71833 36560 ft 446 kts 209°
2026-04-21 08:25 64.01379 9.64948 36553 ft 446 kts 208°
2026-04-21 08:26 63.95994 9.58133 36564 ft 445 kts 208°
2026-04-21 08:26 63.90576 9.51310 36568 ft 445 kts 208°
2026-04-21 08:27 63.85158 9.44515 36567 ft 445 kts 208°
2026-04-21 08:27 63.79734 9.37741 36562 ft 445 kts 208°
2026-04-21 08:28 63.74311 9.31003 36548 ft 445 kts 208°
2026-04-21 08:28 63.68920 9.24332 36566 ft 445 kts 208°
2026-04-21 08:29 63.63489 9.17641 36551 ft 445 kts 208°
2026-04-21 08:29 63.58054 9.10974 36572 ft 445 kts 208°
2026-04-21 08:30 63.52610 9.04324 36566 ft 446 kts 208°
2026-04-21 08:30 63.47201 8.97747 36569 ft 446 kts 208°
2026-04-21 08:31 63.41751 8.91149 36568 ft 445 kts 207°
2026-04-21 08:31 63.36305 8.84582 36574 ft 445 kts 207°
2026-04-21 08:32 63.30848 8.78033 36571 ft 445 kts 207°
2026-04-21 08:32 63.25384 8.71503 36569 ft 446 kts 207°
2026-04-21 08:33 63.19951 8.65038 36575 ft 446 kts 207°
2026-04-21 08:33 63.14483 8.58559 36579 ft 446 kts 207°
2026-04-21 08:34 63.09018 8.52106 36581 ft 446 kts 207°
2026-04-21 08:34 63.03542 8.45677 36584 ft 445 kts 207°
2026-04-21 08:35 62.98112 8.39327 36590 ft 445 kts 207°
2026-04-21 08:35 62.92641 8.32956 36587 ft 445 kts 207°
2026-04-21 08:36 62.87182 8.26626 36588 ft 444 kts 207°
2026-04-21 08:36 62.81721 8.20318 36589 ft 444 kts 207°
2026-04-21 08:37 62.76299 8.14085 36585 ft 443 kts 207°
2026-04-21 08:37 62.70843 8.07835 36581 ft 442 kts 207°
2026-04-21 08:38 62.65396 8.01620 36572 ft 441 kts 207°
2026-04-21 08:38 62.59950 7.95437 36590 ft 445 kts 206°
2026-04-21 08:39 62.54439 7.89206 36590 ft 454 kts 206°
2026-04-21 08:39 62.48829 7.82888 36581 ft 455 kts 206°
2026-04-21 08:40 62.43202 7.76580 36587 ft 455 kts 206°
2026-04-21 08:40 62.37578 7.70299 36582 ft 455 kts 206°
2026-04-21 08:41 62.31997 7.64096 36586 ft 454 kts 206°
2026-04-21 08:41 62.26393 7.57893 36583 ft 452 kts 206°
2026-04-21 08:42 62.20799 7.51724 36575 ft 451 kts 206°
2026-04-21 08:42 62.15224 7.45603 36576 ft 450 kts 206°
2026-04-21 08:43 62.09654 7.39517 36578 ft 449 kts 206°
2026-04-21 08:43 62.04125 7.33495 36577 ft 449 kts 206°
2026-04-21 08:44 61.98565 7.27463 36572 ft 449 kts 206°
2026-04-21 08:44 61.92985 7.21495 36574 ft 449 kts 206°
2026-04-21 08:45 61.87429 7.15440 36564 ft 449 kts 206°
2026-04-21 08:45 61.81895 7.09494 36570 ft 449 kts 206°
2026-04-21 08:46 61.76303 7.03551 36556 ft 450 kts 205°
2026-04-21 08:46 61.70699 6.97612 36413 ft 454 kts 205°
2026-04-21 08:46 61.67851 6.94602 35817 ft 459 kts 205°
2026-04-21 08:47 61.65011 6.91566 35196 ft 457 kts 206°
2026-04-21 08:47 61.62217 6.88586 34541 ft 457 kts 205°
2026-04-21 08:47 61.59377 6.85595 33864 ft 457 kts 205°
2026-04-21 08:47 61.56546 6.82581 33177 ft 456 kts 205°
2026-04-21 08:48 61.53700 6.79627 32456 ft 456 kts 205°
2026-04-21 08:48 61.50851 6.76722 31722 ft 455 kts 205°
2026-04-21 08:48 61.48020 6.73800 31013 ft 453 kts 206°
2026-04-21 08:48 61.45237 6.70814 30516 ft 446 kts 205°
2026-04-21 08:49 61.42461 6.68026 29963 ft 440 kts 205°
2026-04-21 08:49 61.39733 6.65226 29458 ft 434 kts 205°
2026-04-21 08:49 61.37085 6.62475 28942 ft 429 kts 205°
2026-04-21 08:49 61.34436 6.59716 28409 ft 424 kts 205°
2026-04-21 08:50 61.31813 6.56989 27895 ft 419 kts 205°
2026-04-21 08:50 61.29213 6.54299 27384 ft 414 kts 205°
2026-04-21 08:50 61.26643 6.51651 26875 ft 410 kts 205°
2026-04-21 08:50 61.24098 6.49036 26355 ft 406 kts 205°
2026-04-21 08:51 61.21577 6.46453 25861 ft 402 kts 205°
2026-04-21 08:51 61.19084 6.43904 25352 ft 399 kts 205°
2026-04-21 08:51 61.16635 6.41405 24876 ft 396 kts 205°
2026-04-21 08:51 61.14172 6.38894 24385 ft 393 kts 205°
2026-04-21 08:52 61.11730 6.36409 23895 ft 390 kts 205°
2026-04-21 08:52 61.09308 6.33951 23404 ft 387 kts 205°
2026-04-21 08:52 61.06897 6.31509 22916 ft 384 kts 205°
2026-04-21 08:52 61.04508 6.29092 22438 ft 382 kts 205°
2026-04-21 08:53 61.02126 6.26685 21949 ft 380 kts 205°
2026-04-21 08:53 60.99763 6.24303 21471 ft 377 kts 205°
2026-04-21 08:53 60.97416 6.21940 21003 ft 375 kts 205°
2026-04-21 08:53 60.95109 6.19621 20531 ft 373 kts 205°
2026-04-21 08:54 60.92790 6.17292 20060 ft 370 kts 205°
2026-04-21 08:54 60.90478 6.14975 19586 ft 368 kts 205°
2026-04-21 08:54 60.88182 6.12675 19118 ft 366 kts 205°
2026-04-21 08:54 60.85895 6.10392 18651 ft 364 kts 205°
2026-04-21 08:55 60.83615 6.08170 18194 ft 362 kts 202°
2026-04-21 08:55 60.81241 6.06547 17787 ft 358 kts 195°
2026-04-21 08:55 60.78840 6.05275 17324 ft 356 kts 193°
2026-04-21 08:55 60.76474 6.04036 16871 ft 355 kts 194°
2026-04-21 08:56 60.74102 6.02719 16422 ft 353 kts 195°
2026-04-21 08:56 60.71743 6.01364 15967 ft 351 kts 195°
2026-04-21 08:56 60.69394 5.99999 15508 ft 350 kts 195°
2026-04-21 08:56 60.67059 5.98639 15060 ft 349 kts 195°
2026-04-21 08:57 60.64729 5.97282 14589 ft 347 kts 195°
2026-04-21 08:57 60.62410 5.95934 14134 ft 346 kts 195°
2026-04-21 08:57 60.60106 5.94599 13687 ft 344 kts 195°
2026-04-21 08:57 60.57805 5.93267 13239 ft 343 kts 195°
2026-04-21 08:58 60.55516 5.91943 12790 ft 341 kts 195°
2026-04-21 08:58 60.53268 5.90646 12347 ft 340 kts 195°
2026-04-21 08:58 60.50999 5.89339 11899 ft 338 kts 195°
2026-04-21 08:58 60.48742 5.88040 11457 ft 336 kts 195°
2026-04-21 08:59 60.46522 5.86764 11297 ft 326 kts 195°
2026-04-21 08:59 60.44371 5.85531 11140 ft 317 kts 195°
2026-04-21 08:59 60.42283 5.84336 10993 ft 307 kts 195°
2026-04-21 08:59 60.40258 5.83178 10865 ft 298 kts 195°
2026-04-21 09:00 60.38292 5.82055 10736 ft 290 kts 195°
2026-04-21 09:00 60.36382 5.80966 10613 ft 281 kts 195°
2026-04-21 09:00 60.34545 5.79919 10457 ft 275 kts 195°
2026-04-21 09:00 60.32706 5.78873 10183 ft 274 kts 195°
2026-04-21 09:01 60.30873 5.77831 9912 ft 272 kts 195°
2026-04-21 09:01 60.29057 5.76800 9641 ft 271 kts 195°
2026-04-21 09:01 60.27244 5.75770 9368 ft 270 kts 195°
2026-04-21 09:01 60.25434 5.74743 9084 ft 270 kts 195°
2026-04-21 09:02 60.23641 5.73728 8899 ft 265 kts 195°
2026-04-21 09:02 60.21890 5.72738 8773 ft 258 kts 195°
2026-04-21 09:02 60.20180 5.71773 8650 ft 251 kts 195°
2026-04-21 09:03 60.16905 5.71231 8479 ft 234 kts 159°
2026-04-21 09:03 60.15331 5.72017 8268 ft 238 kts 184°
2026-04-21 09:03 60.13800 5.70832 7811 ft 244 kts 223°
2026-04-21 09:03 60.12949 5.67930 7451 ft 245 kts 256°
2026-04-21 09:04 60.12557 5.64617 7217 ft 244 kts 257°
2026-04-21 09:04 60.12153 5.61325 6959 ft 243 kts 256°
2026-04-21 09:04 60.11737 5.58036 6717 ft 242 kts 256°
2026-04-21 09:04 60.11315 5.54792 6552 ft 237 kts 256°
2026-04-21 09:05 60.10908 5.51727 6497 ft 224 kts 256°
2026-04-21 09:05 60.10515 5.48790 6388 ft 212 kts 256°
2026-04-21 09:05 60.10135 5.45964 6143 ft 208 kts 256°
2026-04-21 09:05 60.09758 5.43168 5837 ft 207 kts 256°
2026-04-21 09:06 60.09634 5.40339 5497 ft 205 kts 282°
2026-04-21 09:06 60.09944 5.37568 5207 ft 203 kts 282°
2026-04-21 09:06 60.10214 5.34789 4902 ft 203 kts 282°
2026-04-21 09:06 60.10476 5.32021 4429 ft 209 kts 282°
2026-04-21 09:07 60.10914 5.29229 3690 ft 218 kts 304°
2026-04-21 09:07 60.12084 5.27582 3348 ft 199 kts 345°
2026-04-21 09:07 60.13390 5.27110 3056 ft 183 kts 353°
2026-04-21 09:07 60.14609 5.26751 2821 ft 173 kts 352°
2026-04-21 09:08 60.15792 5.26363 2626 ft 173 kts 352°
2026-04-21 09:08 60.16986 5.25964 2394 ft 175 kts 352°
2026-04-21 09:08 60.17786 5.25697 2223 ft 176 kts 352°
2026-04-21 09:08 60.18962 5.25303 1979 ft 166 kts 351°
2026-04-21 09:09 60.20069 5.24932 1766 ft 156 kts 351°
2026-04-21 09:09 60.21138 5.24574 1600 ft 163 kts 351°
2026-04-21 09:09 60.22605 5.24082 1290 ft 157 kts 350°
2026-04-21 09:09 60.23660 5.23729 1080 ft 152 kts 350°
2026-04-21 09:10 60.24711 5.23377 887 ft 154 kts 350°
2026-04-21 09:10 60.25413 5.23142 750 ft 154 kts 350°
2026-04-21 09:10 60.26467 5.22790 558 ft 153 kts 350°
2026-04-21 09:10 60.27515 5.22443 365 ft 153 kts 350°
2026-04-21 09:11 60.28561 5.22076 177 ft 150 kts 349°
2026-04-21 09:11 60.29700 5.21692 150 ft 88 kts 351°
2026-04-21 09:11 60.30011 5.21613 161 ft 22 kts 29°
2026-04-21 09:11 60.30044 5.21768 159 ft 8 kts 83°
2026-04-21 09:12 60.30045 5.21778 159 ft 1 kts 83°
2026-04-21 09:12 60.30046 5.21797 159 ft 3 kts 83°
2026-04-21 09:12 60.30041 5.21871 158 ft 8 kts 118°
2026-04-21 09:12 60.29964 5.21930 155 ft 15 kts 171°
2026-04-21 09:13 60.29847 5.21967 150 ft 18 kts 170°
2026-04-21 09:13 60.29675 5.22026 147 ft 19 kts 170°
2026-04-21 09:13 60.29549 5.22067 151 ft 18 kts 171°
2026-04-21 09:13 60.29466 5.22095 155 ft 18 kts 170°
2026-04-21 09:14 60.29348 5.22136 159 ft 17 kts 171°
2026-04-21 09:14 60.29234 5.22174 162 ft 16 kts 170°
2026-04-21 09:14 60.29123 5.22212 162 ft 16 kts 171°
2026-04-21 09:14 60.29016 5.22248 161 ft 15 kts 171°
2026-04-21 09:15 60.28911 5.22282 161 ft 15 kts 171°
2026-04-21 09:15 60.28808 5.22317 161 ft 15 kts 170°
2026-04-21 09:15 60.28710 5.22355 163 ft 14 kts 160°
2026-04-21 09:15 60.28706 5.22520 165 ft 13 kts 71°
2026-04-21 09:16 60.28722 5.22699 169 ft 13 kts 81°
2026-04-21 09:16 60.28736 5.22869 172 ft 7 kts 80°
2026-04-21 09:16 60.28740 5.22904 172 ft 0 kts 79°